Location: Rancho Del Sol Observatory
(38.7214°N, 120.6350°W)
Time: 21:44:44
(UTC-08:00)

A-11 Canister half - Pass Details

Date: 01 February 2020
Orbit: 1517 x 1683 km, 47.2° (Epoch: 20 February)

Event Time Altitude Azimuth Distance (km) Brightness Sun altitude
Exits shadow 02:25:35 20° 94° (E) 2,965 10.7 -54.5°
Drops below altitude 10° 02:27:56 10° 99° (E) 3,682 11.3 -54.1°
Sets 02:31:03 0° 103° (ESE) 4,672 11.9 -53.6°
